AAL843 KSLC-KCOS

Flight info

Callsign AAL843
Flight time 1h 13m
Altitude 39000
Route ZIONZ1 KIMMR HBU DBRY5
Aircraft A20N/M-SDE2E3FGHIRWXY/LB1

Departure

Time 2026-05-05 03:22
Airport Salt Lake City International Airport (KSLC)

Arrival

Time 2026-05-05 04:36
Airport City of Colorado Springs Municipal Airport (KCOS)
Time Latitude Longitude Altitude Speed Heading
2026-05-05 02:37 40.78841 -111.98611 4231 ft 0 kts 354°
2026-05-05 03:01 40.78835 -111.98610 4231 ft 1 kts 358°
2026-05-05 03:02 40.78828 -111.98610 4230 ft 1 kts
2026-05-05 03:02 40.78820 -111.98610 4230 ft 1 kts
2026-05-05 03:02 40.78812 -111.98612 4230 ft 1 kts 12°
2026-05-05 03:02 40.78805 -111.98614 4230 ft 1 kts 18°
2026-05-05 03:03 40.78798 -111.98617 4230 ft 1 kts 22°
2026-05-05 03:03 40.78791 -111.98621 4230 ft 1 kts 27°
2026-05-05 03:03 40.78784 -111.98626 4229 ft 1 kts 32°
2026-05-05 03:03 40.78778 -111.98631 4229 ft 1 kts 37°
2026-05-05 03:04 40.78772 -111.98638 4229 ft 1 kts 42°
2026-05-05 03:04 40.78766 -111.98645 4229 ft 1 kts 65°
2026-05-05 03:04 40.78763 -111.98654 4230 ft 1 kts 81°
2026-05-05 03:04 40.78763 -111.98656 4230 ft 0 kts 82°
2026-05-05 03:11 40.78764 -111.98645 4230 ft 2 kts 82°
2026-05-05 03:11 40.78767 -111.98615 4230 ft 4 kts 82°
2026-05-05 03:12 40.78771 -111.98576 4231 ft 5 kts 85°
2026-05-05 03:12 40.78774 -111.98529 4232 ft 5 kts 85°
2026-05-05 03:12 40.78777 -111.98477 4233 ft 6 kts 85°
2026-05-05 03:12 40.78782 -111.98409 4232 ft 10 kts 85°
2026-05-05 03:13 40.78789 -111.98303 4231 ft 13 kts 85°
2026-05-05 03:13 40.78797 -111.98166 4231 ft 16 kts 85°
2026-05-05 03:13 40.78805 -111.98019 4233 ft 16 kts 85°
2026-05-05 03:13 40.78815 -111.97868 4234 ft 17 kts 85°
2026-05-05 03:14 40.78848 -111.97709 4232 ft 19 kts 46°
2026-05-05 03:14 40.78964 -111.97700 4235 ft 17 kts 356°
2026-05-05 03:14 40.79092 -111.97710 4232 ft 20 kts 356°
2026-05-05 03:14 40.79244 -111.97732 4228 ft 23 kts 351°
2026-05-05 03:15 40.79409 -111.97762 4227 ft 25 kts 352°
2026-05-05 03:15 40.79589 -111.97791 4228 ft 26 kts
2026-05-05 03:15 40.79766 -111.97791 4228 ft 25 kts 357°
2026-05-05 03:15 40.79938 -111.97810 4232 ft 24 kts 353°
2026-05-05 03:16 40.80104 -111.97836 4235 ft 24 kts 353°
2026-05-05 03:16 40.80270 -111.97856 4237 ft 24 kts 355°
2026-05-05 03:16 40.80440 -111.97876 4235 ft 25 kts 354°
2026-05-05 03:16 40.80539 -111.97889 4232 ft 1 kts 354°
2026-05-05 03:17 40.80558 -111.97892 4232 ft 5 kts 354°
2026-05-05 03:17 40.80601 -111.97898 4232 ft 8 kts 354°
2026-05-05 03:17 40.80663 -111.97904 4232 ft 10 kts 357°
2026-05-05 03:17 40.80734 -111.97879 4230 ft 8 kts 67°
2026-05-05 03:18 40.80735 -111.97873 4230 ft 0 kts 70°
2026-05-05 03:19 40.80738 -111.97863 4230 ft 2 kts 70°
2026-05-05 03:20 40.80738 -111.97862 4230 ft 1 kts 70°
2026-05-05 03:20 40.80739 -111.97860 4230 ft 0 kts 70°
2026-05-05 03:20 40.80745 -111.97839 4229 ft 5 kts 71°
2026-05-05 03:21 40.80742 -111.97778 4229 ft 9 kts 98°
2026-05-05 03:21 40.80704 -111.97705 4228 ft 11 kts 136°
2026-05-05 03:21 40.80651 -111.97687 4229 ft 0 kts 177°
2026-05-05 03:22 40.80481 -111.97668 4236 ft 66 kts 173°
2026-05-05 03:22 40.79749 -111.97579 4229 ft 143 kts 175°
2026-05-05 03:22 40.78585 -111.97465 4556 ft 175 kts 176°
2026-05-05 03:22 40.77326 -111.97290 5179 ft 194 kts 172°
2026-05-05 03:23 40.75943 -111.96995 5815 ft 205 kts 170°
2026-05-05 03:23 40.74553 -111.96663 6665 ft 206 kts 170°
2026-05-05 03:23 40.73099 -111.96309 7298 ft 221 kts 169°
2026-05-05 03:23 40.71544 -111.95857 7871 ft 236 kts 167°
2026-05-05 03:24 40.69889 -111.95549 8517 ft 244 kts 178°
2026-05-05 03:24 40.68172 -111.95468 9113 ft 255 kts 172°
2026-05-05 03:24 40.66419 -111.94865 9617 ft 262 kts 163°
2026-05-05 03:24 40.64671 -111.94372 10539 ft 252 kts 176°
2026-05-05 03:25 40.62971 -111.94424 11455 ft 238 kts 188°
2026-05-05 03:25 40.61397 -111.94901 12235 ft 228 kts 198°
2026-05-05 03:25 40.59915 -111.95573 12867 ft 225 kts 191°
2026-05-05 03:25 40.58339 -111.95750 13314 ft 231 kts 179°
2026-05-05 03:26 40.56711 -111.95674 13933 ft 235 kts 178°
2026-05-05 03:26 40.55076 -111.95604 14701 ft 234 kts 179°
2026-05-05 03:26 40.53445 -111.95569 15428 ft 235 kts 180°
2026-05-05 03:26 40.51798 -111.95567 16063 ft 238 kts 181°
2026-05-05 03:27 40.50125 -111.95600 16671 ft 242 kts 182°
2026-05-05 03:27 40.48430 -111.95668 17275 ft 245 kts 182°
2026-05-05 03:27 40.46718 -111.95768 17873 ft 248 kts 182°
2026-05-05 03:27 40.44985 -111.95805 18439 ft 251 kts 180°
2026-05-05 03:28 40.43230 -111.95759 18974 ft 254 kts 178°
2026-05-05 03:28 40.41481 -111.95605 19516 ft 257 kts 176°
2026-05-05 03:28 40.39694 -111.95404 20058 ft 259 kts 175°
2026-05-05 03:28 40.37897 -111.95164 20608 ft 260 kts 174°
2026-05-05 03:29 40.36091 -111.94888 21121 ft 263 kts 173°
2026-05-05 03:29 40.34267 -111.94609 21618 ft 265 kts 174°
2026-05-05 03:29 40.32424 -111.94354 22098 ft 268 kts 175°
2026-05-05 03:29 40.30555 -111.94125 22552 ft 271 kts 175°
2026-05-05 03:30 40.28668 -111.93921 22976 ft 274 kts 176°
2026-05-05 03:30 40.26752 -111.93736 23357 ft 279 kts 175°
2026-05-05 03:30 40.24769 -111.93460 23320 ft 292 kts 173°
2026-05-05 03:30 40.22763 -111.93061 23257 ft 289 kts 165°
2026-05-05 03:31 40.20910 -111.92110 23213 ft 286 kts 150°
2026-05-05 03:31 40.19316 -111.90569 23166 ft 286 kts 135°
2026-05-05 03:31 40.18080 -111.88533 23122 ft 286 kts 120°
2026-05-05 03:31 40.17295 -111.86157 23068 ft 286 kts 104°
2026-05-05 03:32 40.16982 -111.83597 23029 ft 285 kts 100°
2026-05-05 03:32 40.16291 -111.81184 22969 ft 286 kts 125°
2026-05-05 03:32 40.14918 -111.79337 22829 ft 285 kts 146°
2026-05-05 03:32 40.13216 -111.78116 22805 ft 282 kts 159°
2026-05-05 03:33 40.11336 -111.77400 22921 ft 283 kts 165°
2026-05-05 03:33 40.09456 -111.76606 22991 ft 284 kts 160°
2026-05-05 03:33 40.07677 -111.75475 23047 ft 285 kts 147°
2026-05-05 03:33 40.06153 -111.73825 23030 ft 286 kts 129°
2026-05-05 03:34 40.05092 -111.71647 23047 ft 284 kts 118°
2026-05-05 03:34 40.04193 -111.69353 23316 ft 284 kts 115°
2026-05-05 03:34 40.03295 -111.67058 23833 ft 284 kts 122°
2026-05-05 03:34 40.02246 -111.64909 24420 ft 280 kts 123°
2026-05-05 03:35 40.01183 -111.62773 24866 ft 281 kts 122°
2026-05-05 03:35 40.00143 -111.60586 25166 ft 287 kts 121°
2026-05-05 03:35 39.99122 -111.58319 25438 ft 292 kts 120°
2026-05-05 03:35 39.98133 -111.55997 25831 ft 293 kts 118°
2026-05-05 03:36 39.97187 -111.53647 26264 ft 292 kts 117°
2026-05-05 03:36 39.96285 -111.51276 26670 ft 292 kts 115°
2026-05-05 03:36 39.95432 -111.48895 27004 ft 295 kts 114°
2026-05-05 03:36 39.94603 -111.46434 27286 ft 298 kts 112°
2026-05-05 03:37 39.93769 -111.43939 27557 ft 302 kts 117°
2026-05-05 03:37 39.92743 -111.41544 27873 ft 303 kts 121°
2026-05-05 03:37 39.91615 -111.39224 28210 ft 304 kts 124°
2026-05-05 03:37 39.90397 -111.36973 28519 ft 305 kts 127°
2026-05-05 03:38 39.89085 -111.34784 28758 ft 308 kts 129°
2026-05-05 03:38 39.87718 -111.32624 28985 ft 311 kts 127°
2026-05-05 03:38 39.86443 -111.30343 29216 ft 313 kts 124°
2026-05-05 03:38 39.85262 -111.27940 29439 ft 316 kts 120°
2026-05-05 03:39 39.84189 -111.25440 29683 ft 317 kts 117°
2026-05-05 03:39 39.83245 -111.22839 29928 ft 319 kts 113°
2026-05-05 03:39 39.82367 -111.20185 30202 ft 319 kts 114°
2026-05-05 03:39 39.81434 -111.17560 30465 ft 320 kts 116°
2026-05-05 03:40 39.80435 -111.14970 30688 ft 318 kts 117°
2026-05-05 03:40 39.79385 -111.12450 30670 ft 314 kts 119°
2026-05-05 03:40 39.78299 -111.10025 30342 ft 316 kts 121°
2026-05-05 03:40 39.77146 -111.07568 29970 ft 321 kts 122°
2026-05-05 03:41 39.75932 -111.05052 29884 ft 333 kts 122°
2026-05-05 03:41 39.74679 -111.02529 30242 ft 330 kts 123°
2026-05-05 03:41 39.73426 -111.00070 30747 ft 323 kts 124°
2026-05-05 03:41 39.72170 -110.97670 31123 ft 320 kts 124°
2026-05-05 03:42 39.70895 -110.95294 31352 ft 322 kts 125°
2026-05-05 03:42 39.69608 -110.92898 31518 ft 326 kts 123°
2026-05-05 03:42 39.68378 -110.90409 31670 ft 329 kts 121°
2026-05-05 03:42 39.67204 -110.87845 31906 ft 330 kts 119°
2026-05-05 03:43 39.66053 -110.85252 32148 ft 331 kts 123°
2026-05-05 03:43 39.64735 -110.82843 32368 ft 333 kts 129°
2026-05-05 03:43 39.63194 -110.80592 32563 ft 334 kts 135°
2026-05-05 03:43 39.61575 -110.78419 32750 ft 336 kts 129°
2026-05-05 03:44 39.60177 -110.75974 32925 ft 339 kts 121°
2026-05-05 03:44 39.58957 -110.73360 33159 ft 339 kts 121°
2026-05-05 03:44 39.58155 -110.71618 33308 ft 339 kts 121°
2026-05-05 03:44 39.56949 -110.68984 33528 ft 339 kts 120°
2026-05-05 03:45 39.55748 -110.66341 33711 ft 341 kts 120°
2026-05-05 03:45 39.54549 -110.63679 33867 ft 343 kts 120°
2026-05-05 03:45 39.52962 -110.60126 34065 ft 345 kts 120°
2026-05-05 03:45 39.51765 -110.57422 34235 ft 347 kts 120°
2026-05-05 03:46 39.50958 -110.55585 34354 ft 347 kts 119°
2026-05-05 03:46 39.49767 -110.52859 34524 ft 348 kts 119°
2026-05-05 03:46 39.48580 -110.50119 34685 ft 349 kts 119°
2026-05-05 03:46 39.47396 -110.47365 34838 ft 351 kts 119°
2026-05-05 03:47 39.46215 -110.44596 34985 ft 352 kts 118°
2026-05-05 03:47 39.45037 -110.41812 35123 ft 354 kts 118°
2026-05-05 03:47 39.43861 -110.39010 35261 ft 355 kts 118°
2026-05-05 03:47 39.42701 -110.36226 35385 ft 356 kts 118°
2026-05-05 03:48 39.41530 -110.33390 35519 ft 358 kts 118°
2026-05-05 03:48 39.40361 -110.30538 35634 ft 360 kts 117°
2026-05-05 03:48 39.39192 -110.27665 35735 ft 361 kts 117°
2026-05-05 03:48 39.38026 -110.24775 35838 ft 363 kts 117°
2026-05-05 03:49 39.36865 -110.21873 35948 ft 364 kts 117°
2026-05-05 03:49 39.35704 -110.18950 36086 ft 365 kts 117°
2026-05-05 03:49 39.34553 -110.16028 36263 ft 364 kts 117°
2026-05-05 03:49 39.33372 -110.13131 36415 ft 365 kts 120°
2026-05-05 03:50 39.32048 -110.10335 36526 ft 366 kts 124°
2026-05-05 03:50 39.30616 -110.07654 36641 ft 367 kts 125°
2026-05-05 03:50 39.29140 -110.04964 36777 ft 368 kts 126°
2026-05-05 03:50 39.27640 -110.02278 36877 ft 369 kts 126°
2026-05-05 03:51 39.24595 -109.96893 37066 ft 373 kts 126°
2026-05-05 03:51 39.21538 -109.91456 37234 ft 376 kts 127°
2026-05-05 03:52 39.19966 -109.88754 37342 ft 376 kts 125°
2026-05-05 03:52 39.18499 -109.85958 37428 ft 378 kts 122°
2026-05-05 03:52 39.15899 -109.80024 37512 ft 382 kts 115°
2026-05-05 03:53 39.14005 -109.73590 37625 ft 385 kts 105°
2026-05-05 03:53 39.13370 -109.70239 37727 ft 386 kts 101°
2026-05-05 03:53 39.12949 -109.66827 37833 ft 386 kts 96°
2026-05-05 03:54 39.12745 -109.63384 37942 ft 386 kts 91°
2026-05-05 03:54 39.12740 -109.59924 38037 ft 386 kts 90°
2026-05-05 03:54 39.12524 -109.53000 38174 ft 388 kts 95°
2026-05-05 03:55 39.11503 -109.46201 38270 ft 391 kts 107°
2026-05-05 03:55 39.10606 -109.42896 38389 ft 391 kts 112°
2026-05-05 03:55 39.09461 -109.39732 38515 ft 390 kts 118°
2026-05-05 03:56 39.08106 -109.36711 38627 ft 390 kts 123°
2026-05-05 03:56 39.06554 -109.33850 38716 ft 390 kts 128°
2026-05-05 03:56 39.02892 -109.28679 38841 ft 392 kts 138°
2026-05-05 03:57 38.98852 -109.23952 38979 ft 394 kts 132°
2026-05-05 03:57 38.95598 -109.18275 39051 ft 397 kts 118°
2026-05-05 03:58 38.93453 -109.11715 39170 ft 399 kts 107°
2026-05-05 03:58 38.92651 -109.08306 39273 ft 399 kts 105°
2026-05-05 03:58 38.91957 -109.04852 39198 ft 401 kts 103°
2026-05-05 03:59 38.91362 -109.01302 38812 ft 411 kts 101°
2026-05-05 03:59 38.90840 -108.97661 38650 ft 417 kts 100°
2026-05-05 03:59 38.90329 -108.94012 38939 ft 411 kts 100°
2026-05-05 03:59 38.89823 -108.90437 39304 ft 403 kts 100°
2026-05-05 04:00 38.88750 -108.83234 38594 ft 428 kts 101°
2026-05-05 04:00 38.88159 -108.79487 38730 ft 426 kts 102°
2026-05-05 04:00 38.87545 -108.75803 38714 ft 430 kts 102°
2026-05-05 04:01 38.86887 -108.72069 38829 ft 430 kts 103°
2026-05-05 04:01 38.86193 -108.68338 38901 ft 430 kts 103°
2026-05-05 04:01 38.85427 -108.60726 38992 ft 432 kts 93°
2026-05-05 04:02 38.85064 -108.52974 38998 ft 439 kts 93°
2026-05-05 04:02 38.84677 -108.45097 38993 ft 446 kts 96°
2026-05-05 04:03 38.83210 -108.37323 39007 ft 453 kts 112°
2026-05-05 04:03 38.80731 -108.29818 38999 ft 461 kts 113°
2026-05-05 04:04 38.78372 -108.22229 38999 ft 461 kts 110°
2026-05-05 04:04 38.76165 -108.14522 38998 ft 460 kts 110°
2026-05-05 04:05 38.73969 -108.06827 38995 ft 460 kts 110°
2026-05-05 04:05 38.71777 -107.99114 38999 ft 461 kts 110°
2026-05-05 04:06 38.69759 -107.91319 38998 ft 461 kts 108°
2026-05-05 04:06 38.67732 -107.83519 39006 ft 463 kts 109°
2026-05-05 04:07 38.65588 -107.75743 39000 ft 465 kts 109°
2026-05-05 04:07 38.63400 -107.67948 38995 ft 466 kts 110°
2026-05-05 04:08 38.61219 -107.60199 39001 ft 466 kts 110°
2026-05-05 04:08 38.59023 -107.52416 39005 ft 466 kts 110°
2026-05-05 04:09 38.56808 -107.44589 38999 ft 468 kts 110°
2026-05-05 04:09 38.54587 -107.36758 38995 ft 469 kts 110°
2026-05-05 04:10 38.52361 -107.28938 39003 ft 466 kts 110°
2026-05-05 04:10 38.50139 -107.21154 39001 ft 467 kts 110°
2026-05-05 04:11 38.47923 -107.13410 39000 ft 466 kts 110°
2026-05-05 04:11 38.45904 -107.05569 38995 ft 466 kts 103°
2026-05-05 04:12 38.44868 -106.97390 38991 ft 467 kts 94°
2026-05-05 04:12 38.44471 -106.89119 39003 ft 468 kts 94°
2026-05-05 04:13 38.44052 -106.80820 39003 ft 469 kts 94°
2026-05-05 04:13 38.43624 -106.72551 39003 ft 466 kts 94°
2026-05-05 04:14 38.43191 -106.64288 39003 ft 467 kts 94°
2026-05-05 04:14 38.42756 -106.56078 38942 ft 467 kts 94°
2026-05-05 04:15 38.42535 -106.51944 38702 ft 466 kts 94°
2026-05-05 04:15 38.42312 -106.47815 38453 ft 467 kts 94°
2026-05-05 04:15 38.42088 -106.43677 38204 ft 468 kts 94°
2026-05-05 04:15 38.41861 -106.39531 37956 ft 467 kts 94°
2026-05-05 04:16 38.41634 -106.35396 37705 ft 468 kts 94°
2026-05-05 04:16 38.41404 -106.31244 37458 ft 471 kts 94°
2026-05-05 04:16 38.41172 -106.27068 37208 ft 471 kts 94°
2026-05-05 04:16 38.40938 -106.22899 36959 ft 472 kts 94°
2026-05-05 04:17 38.40703 -106.18724 36711 ft 472 kts 94°
2026-05-05 04:17 38.40467 -106.14571 36462 ft 467 kts 94°
2026-05-05 04:17 38.40235 -106.10504 36216 ft 466 kts 94°
2026-05-05 04:17 38.39998 -106.06379 35969 ft 467 kts 94°
2026-05-05 04:18 38.39760 -106.02255 35720 ft 468 kts 94°
2026-05-05 04:18 38.39519 -105.98115 35471 ft 470 kts 94°
2026-05-05 04:18 38.39274 -105.93942 35221 ft 475 kts 94°
2026-05-05 04:18 38.39027 -105.89745 34972 ft 473 kts 94°
2026-05-05 04:19 38.38781 -105.85590 34717 ft 468 kts 94°
2026-05-05 04:19 38.38535 -105.81463 34475 ft 465 kts 94°
2026-05-05 04:19 38.38289 -105.77353 34237 ft 465 kts 94°
2026-05-05 04:19 38.38041 -105.73233 33976 ft 467 kts 94°
2026-05-05 04:20 38.37790 -105.69094 33726 ft 468 kts 94°
2026-05-05 04:20 38.37538 -105.64964 33477 ft 467 kts 94°
2026-05-05 04:20 38.37284 -105.60834 33228 ft 468 kts 94°
2026-05-05 04:20 38.37032 -105.56749 32982 ft 469 kts 94°
2026-05-05 04:21 38.36774 -105.52587 32731 ft 471 kts 94°
2026-05-05 04:21 38.36515 -105.48426 32490 ft 471 kts 94°
2026-05-05 04:21 38.36253 -105.44263 32233 ft 471 kts 94°
2026-05-05 04:21 38.35990 -105.40093 31983 ft 472 kts 95°
2026-05-05 04:22 38.35725 -105.35927 31734 ft 471 kts 95°
2026-05-05 04:22 38.35459 -105.31762 31484 ft 472 kts 95°
2026-05-05 04:22 38.35189 -105.27572 31235 ft 476 kts 95°
2026-05-05 04:22 38.34918 -105.23384 30985 ft 472 kts 95°
2026-05-05 04:23 38.34647 -105.19230 30738 ft 469 kts 95°
2026-05-05 04:23 38.34375 -105.15086 30486 ft 468 kts 95°
2026-05-05 04:23 38.34102 -105.10960 30236 ft 466 kts 95°
2026-05-05 04:23 38.33829 -105.06849 29986 ft 464 kts 95°
2026-05-05 04:24 38.33555 -105.02757 29735 ft 462 kts 95°
2026-05-05 04:24 38.33283 -104.98735 29493 ft 461 kts 95°
2026-05-05 04:24 38.33008 -104.94681 29239 ft 458 kts 95°
2026-05-05 04:25 38.32454 -104.86630 28741 ft 455 kts 95°
2026-05-05 04:25 38.32176 -104.82631 28490 ft 453 kts 95°
2026-05-05 04:25 38.31897 -104.78644 28240 ft 451 kts 95°
2026-05-05 04:25 38.31616 -104.74668 27989 ft 449 kts 95°
2026-05-05 04:26 38.31335 -104.70713 27730 ft 448 kts 95°
2026-05-05 04:26 38.31052 -104.66774 27489 ft 446 kts 95°
2026-05-05 04:26 38.30959 -104.62884 27774 ft 425 kts 70°
2026-05-05 04:26 38.32179 -104.59838 29987 ft 367 kts 45°
2026-05-05 04:27 38.34296 -104.58280 30439 ft 358 kts 356°
2026-05-05 04:27 38.36800 -104.58867 29298 ft 390 kts 334°
2026-05-05 04:27 38.39279 -104.60771 27317 ft 441 kts 325°
2026-05-05 04:27 38.41915 -104.63038 25173 ft 471 kts 326°
2026-05-05 04:28 38.44752 -104.65347 22965 ft 495 kts 330°
2026-05-05 04:28 38.47935 -104.67120 21332 ft 501 kts 341°
2026-05-05 04:28 38.51215 -104.68410 20876 ft 482 kts 346°
2026-05-05 04:28 38.54448 -104.68923 20589 ft 461 kts
2026-05-05 04:29 38.57627 -104.68563 19355 ft 461 kts
2026-05-05 04:29 38.60752 -104.67772 18139 ft 464 kts 12°
2026-05-05 04:29 38.63877 -104.66994 17649 ft 448 kts
2026-05-05 04:29 38.66893 -104.66404 17421 ft 428 kts
2026-05-05 04:30 38.69782 -104.65970 17193 ft 409 kts
2026-05-05 04:30 38.72578 -104.65626 16701 ft 399 kts
2026-05-05 04:30 38.75317 -104.65323 16163 ft 391 kts
2026-05-05 04:30 38.78024 -104.64986 15365 ft 392 kts
2026-05-05 04:31 38.80701 -104.64584 14424 ft 382 kts
2026-05-05 04:31 38.83326 -104.64253 13292 ft 377 kts
2026-05-05 04:31 38.85917 -104.64009 12326 ft 368 kts
2026-05-05 04:31 38.88439 -104.63808 11436 ft 358 kts
2026-05-05 04:32 38.90883 -104.63641 10723 ft 345 kts
2026-05-05 04:32 38.93271 -104.63697 10129 ft 351 kts 351°
2026-05-05 04:32 38.95534 -104.64842 9822 ft 344 kts 314°
2026-05-05 04:32 38.96756 -104.67242 9924 ft 309 kts 285°
2026-05-05 04:33 38.96910 -104.68998 9870 ft 293 kts 263°
2026-05-05 04:33 38.95565 -104.71661 9550 ft 266 kts 203°
2026-05-05 04:33 38.94399 -104.71998 9367 ft 256 kts 180°
2026-05-05 04:33 38.92642 -104.71848 8666 ft 253 kts 175°
2026-05-05 04:34 38.90928 -104.71461 8083 ft 246 kts 162°
2026-05-05 04:34 38.89407 -104.70644 7833 ft 227 kts 155°
2026-05-05 04:34 38.88019 -104.69831 7541 ft 213 kts 157°
2026-05-05 04:34 38.86662 -104.69189 7201 ft 204 kts 165°
2026-05-05 04:35 38.85300 -104.68837 6853 ft 196 kts 173°
2026-05-05 04:35 38.83957 -104.68664 6552 ft 196 kts 176°
2026-05-05 04:35 38.82556 -104.68574 6396 ft 203 kts 179°
2026-05-05 04:35 38.81196 -104.68569 6226 ft 187 kts 180°
2026-05-05 04:36 38.80227 -104.68571 6195 ft 73 kts 181°
2026-05-05 04:36 38.79842 -104.68579 6193 ft 40 kts 180°
2026-05-05 04:36 38.79646 -104.68580 6193 ft 26 kts 180°
2026-05-05 04:36 38.79509 -104.68581 6190 ft 15 kts 180°
2026-05-05 04:37 38.79346 -104.68601 6192 ft 29 kts 198°
2026-05-05 04:37 38.79199 -104.68662 6192 ft 0 kts 198°
2026-05-05 04:37 38.79182 -104.68669 6192 ft 7 kts 198°
2026-05-05 04:37 38.79170 -104.68675 6192 ft 0 kts 198°
2026-05-05 04:38 38.79164 -104.68680 6192 ft 4 kts 213°
2026-05-05 04:38 38.79119 -104.68724 6193 ft 10 kts 238°
2026-05-05 04:39 38.79144 -104.68773 6192 ft 10 kts 327°
2026-05-05 04:39 38.79238 -104.68795 6193 ft 18 kts
2026-05-05 04:39 38.79383 -104.68787 6193 ft 25 kts
2026-05-05 04:39 38.79574 -104.68785 6193 ft 30 kts 360°
2026-05-05 04:40 38.79803 -104.68790 6194 ft 35 kts 358°
2026-05-05 04:40 38.80057 -104.68794 6194 ft 38 kts
2026-05-05 04:40 38.80318 -104.68805 6194 ft 37 kts 349°
2026-05-05 04:40 38.80385 -104.68993 6192 ft 20 kts 224°
2026-05-05 04:41 38.80360 -104.69158 6193 ft 20 kts 268°
2026-05-05 04:41 38.80356 -104.69340 6193 ft 21 kts 268°
2026-05-05 04:41 38.80359 -104.69533 6193 ft 22 kts 272°
2026-05-05 04:41 38.80365 -104.69737 6193 ft 23 kts 272°
2026-05-05 04:42 38.80370 -104.69950 6193 ft 24 kts 269°
2026-05-05 04:42 38.80367 -104.70171 6193 ft 25 kts 269°
2026-05-05 04:42 38.80362 -104.70400 6193 ft 26 kts 268°
2026-05-05 04:42 38.80356 -104.70636 6193 ft 27 kts 268°
2026-05-05 04:43 38.80351 -104.70878 6193 ft 27 kts 269°
2026-05-05 04:43 38.80371 -104.71120 6193 ft 28 kts 276°
2026-05-05 04:43 38.80371 -104.71367 6193 ft 28 kts 269°
2026-05-05 04:43 38.80367 -104.71622 6192 ft 29 kts 269°
2026-05-05 04:44 38.80370 -104.71878 6193 ft 29 kts 282°
2026-05-05 04:44 38.80493 -104.71958 6193 ft 19 kts
2026-05-05 04:44 38.80631 -104.71971 6193 ft 21 kts 355°
2026-05-05 04:44 38.80767 -104.72008 6193 ft 7 kts 310°
2026-05-05 04:45 38.80768 -104.72009 6193 ft 0 kts 310°
2026-05-05 04:48 38.80936 -104.68566 6194 ft 0 kts 179°